Weather in Neklyudovo

Russia / Tver Oblast     57°08′39″N   37°20′39″E
temp.,
°C
wind,
m/s
gust,
m/s
humid.,
%
clouds,
%
prec.,
mm/h
press.,
hPa
HPBL,
m
19 april, mon
mon1900:00+6ene5118092 0.0 1026486
03:00+4ene4990100 0.0 1026433
06:00+5ene4887100 0.0 1026638
09:00+6ene5873100 0.0 1026756
12:00+8ene575499 0.0 10261051
15:00+9e5749100 0.0 10261557
18:00+9e5853100 0.0 10251245
21:00+6e5105483 0.0 1026931
20 april, tue
tue2000:00+3e41160100 0.0 1026527
03:00+2e41267100 0.0 1026456
06:00+2e4106776 0.0 1025522
09:00+4e6105893 0.0 1025736
12:00+7ese6956100 0.0 10231130
15:00+6ese5969100 0.3 10221165
18:00+4e51296100 2.2 1020948
21:00+4e51396100 2.7 10181095
21 april, wed
wed2100:00+5e51279100 0.4 1015930
03:00+3ene61278100 1.1 1011883
06:00+1ene61497100 4.3 1007724
09:000ene51298100 9.9 1004581
12:00+1ne41099100 3.4 1000441
15:00+1wnw12100100 7.1 1000308
18:00+1sw51199100 0.4 1003681
21:00+2sw51199100 1.1 1007708
22 april, thu
thu2200:00+3sw41198100 0.1 1009765
03:00+3s41198100 0.2 1010409
06:00+2s41197100 0.0 1011325
09:00+5s4991100 0.1 1012450
12:00+9ssw61085100 0.1 10121060
15:00+9ssw698386 1.1 1013964
18:00+8s3989100 0.1 1014554
21:00+7s39940 0.1 1015214
23 april, fri
fri2300:00+5s38965 0.0 1015143
03:00+4sse26966 0.0 1015106
06:00+4sse389748 0.0 1015157
09:00+10s498035 0.0 1015417
12:00+14s6106963 0.1 10141297
15:00+15s596869 1.1 10131242
18:00+13s51273100 1.3 1012760
21:00+11sse616796 1.3 1011673